Hourly Data Report for September 21, 2017

All times are specified in Local Standard Time (LST). Add 1 hour to adjust for Daylight Saving Time where and when it is observed.

HALL BEACH A
NUNAVUT

68°46'33.000" N
81°14'33.000" W
9.10 m
2402354
71293
YUX

Download Data

Hourly Data (September 2017)
Hourly Data Report for September 21, 2017
Temp Definition
°C
Dew Point Temp Definition
°C
Rel Hum Definition
%
Wind Dir Definition
10's deg

Wind Spd Definition
km/h
Visibility Definition
km
Stn Press Definition
kPa
Hmdx Definition


Wind Chill Definition


Weather Definition


TIME
00:00 Legend Double Dagger -1.3 -2.7 90 35 15 16.1 102.56   -6 LegendNANA
01:00 Legend Double Dagger -1.6 -2.7 92 35 15 16.1 102.53   -6 LegendNANA
02:00 Legend Double Dagger -2.1 -3.1 93 33 15 16.1 102.52   -7 LegendNANA
03:00 Legend Double Dagger -1.7 -2.7 93 35 15 16.1 102.52   -7 LegendNANA
04:00 Legend Double Dagger -2.1 -2.8 95 34 15 16.1 102.49   -7 LegendNANA
05:00 Legend Double Dagger -2.1 -2.9 94 35 15 16.1 102.44   -7 LegendNANA
06:00 Legend Double Dagger -2.1 -2.9 94 36 13 16.1 102.41   -7 LegendNANA
07:00 Legend Double Dagger -1.2 -2.8 89 1 17 16.1 102.37   -6 LegendNANA
08:00 Legend Double Dagger -0.6 -2.3 88 1 17 16.1 102.32   -6 LegendNANA
09:00 Legend Double Dagger -0.2 -2.1 87 36 18 16.1 102.29   -5 LegendNANA
10:00 Legend Double Dagger 0.0 -2.2 85 36 15 16.1 102.27   -4 LegendNANA
11:00 Legend Double Dagger 0.4 -2.2 83 1 17 16.1 102.20     LegendNANA
12:00 Legend Double Dagger 0.4 -2.1 83 2 21 16.1 102.14     LegendNANA
13:00 Legend Double Dagger -0.1 -2.2 86 2 21 16.1 102.11   -6 LegendNANA
14:00 Legend Double Dagger -1.8 -2.9 92 2 18 16.1 102.09   -7 LegendNANA
15:00 Legend Double Dagger -1.7 -3.1 90 2 17 16.1 102.06   -7 LegendNANA
16:00 Legend Double Dagger -1.7 -3.0 91 2 18 16.1 102.03   -7 LegendNANA
17:00 Legend Double Dagger -1.9 -2.9 93 1 15 16.1 102.00   -7 LegendNANA
18:00 Legend Double Dagger -1.5 -3.5 86 36 15 16.1 101.96   -6 LegendNANA
19:00 Legend Double Dagger -1.7 -3.7 86 36 13 16.1 101.95   -6 LegendNANA
20:00 Legend Double Dagger -1.7 -3.7 86 1 13 16.1 101.91   -6 LegendNANA
21:00 Legend Double Dagger -2.1 -3.5 90 35 13 16.1 101.87   -7 LegendNANA
22:00 Legend Double Dagger -2.7 -3.7 93 34 13 16.1 101.85   -7 LegendNANA
23:00 Legend Double Dagger -2.9 -3.9 93 33 13 16.1 101.82   -8 LegendNANA

Notes on Data Quality.

Legend

  • E = Estimated
  • M = Missing
  • NA = Not Available
  • ‡ = Partner data that is not subject to review by the National Climate Archives
Date modified: